| time (UTC) | temp F | wind direction | speed MPH | gust MPH | rain 1hr in | rain 24hr in | rain mn in | humidity % | barometer mb |
| 20260902204542 | 79 | 218 | 14.0 | 29.0 | 0.00 | 0.00 | 0.00 | 21 | 1003.1 |
| 20260902203039 | 79 | 288 | 14.0 | 26.0 | 0.00 | 0.00 | 0.00 | 22 | 1003.0 |
| 20260902201544 | 79 | 218 | 16.0 | 26.0 | 0.00 | 0.00 | 0.00 | 21 | 1003.2 |
| 20260902200031 | 78 | 245 | 16.0 | 29.0 | 0.00 | 0.00 | 0.00 | 22 | 1003.3 |
| 20260902194534 | 78 | 266 | 13.0 | 30.0 | 0.00 | 0.00 | 0.00 | 20 | 1003.6 |
| 20260902193038 | 77 | 283 | 12.0 | 36.0 | 0.00 | 0.00 | 0.00 | 22 | 1003.8 |
| 20260902191526 | 77 | 154 | 18.0 | 36.0 | 0.00 | 0.00 | 0.00 | 21 | 1004.1 |
| 20260902190022 | 77 | 228 | 9.0 | 28.0 | 0.00 | 0.00 | 0.00 | 26 | 1004.1 |
| 20260902184521 | 77 | 248 | 12.0 | 29.0 | 0.00 | 0.00 | 0.00 | 28 | 1004.2 |
| 20260902183025 | 76 | 252 | 12.0 | 27.0 | 0.00 | 0.00 | 0.00 | 29 | 1004.3 |
| 20260902181515 | 76 | 226 | 15.0 | 31.0 | 0.00 | 0.00 | 0.00 | 30 | 1004.5 |
| 20260902180013 | 75 | 231 | 10.0 | 27.0 | 0.00 | 0.00 | 0.00 | 31 | 1004.6 |
| 20260902174511 | 75 | 246 | 13.0 | 26.0 | 0.00 | 0.00 | 0.00 | 33 | 1004.9 |
| 20260902173014 | 74 | 276 | 11.0 | 29.0 | 0.00 | 0.00 | 0.00 | 35 | 1004.7 |
| 20260902171508 | 74 | 242 | 12.0 | 29.0 | 0.00 | 0.00 | 0.00 | 34 | 1004.7 |
| 20260902170006 | 73 | 281 | 9.0 | 18.0 | 0.00 | 0.00 | 0.00 | 36 | 1005.0 |
| 20260902164506 | 73 | 252 | 8.0 | 22.0 | 0.00 | 0.00 | 0.00 | 37 | 1004.9 |
| 20260902163004 | 73 | 250 | 8.0 | 16.0 | 0.00 | 0.00 | 0.00 | 39 | 1005.0 |
| 20260902161602 | 72 | 117 | 6.0 | 17.0 | 0.00 | 0.00 | 0.00 | 40 | 1005.2 |
| 20260902161501 | 72 | 307 | 4.0 | 17.0 | 0.00 | 0.00 | 0.00 | 40 | 1005.0 |
| 20260902160113 | 72 | 25 | 5.0 | 15.0 | 0.00 | 0.00 | 0.00 | 40 | 1005.0 |
| 20260902154559 | 72 | 356 | 7.0 | 16.0 | 0.00 | 0.00 | 0.00 | 40 | 1005.1 |
| 20260902153057 | 71 | 312 | 7.0 | 29.0 | 0.00 | 0.00 | 0.00 | 41 | 1005.3 |
| 20260902151554 | 71 | 276 | 4.0 | 15.0 | 0.00 | 0.00 | 0.00 | 42 | 1004.8 |
| 20260902150054 | 70 | 4 | 9.0 | 13.0 | 0.00 | 0.00 | 0.00 | 43 | 1004.9 |
| 20260902144553 | 70 | 201 | 4.0 | 16.0 | 0.00 | 0.00 | 0.00 | 41 | 1004.7 |
| 20260902143051 | 70 | 226 | 8.0 | 23.0 | 0.00 | 0.00 | 0.00 | 39 | 1004.6 |
| 20260902141551 | 70 | 49 | 11.0 | 21.0 | 0.00 | 0.00 | 0.00 | 44 | 1004.6 |
| 20260902140051 | 69 | 32 | 9.0 | 18.0 | 0.00 | 0.00 | 0.00 | 45 | 1004.6 |
| 20260902134554 | 69 | 315 | 9.0 | 16.0 | 0.00 | 0.00 | 0.00 | 45 | 1004.7 |
| 20260902133048 | 69 | 312 | 6.0 | 18.0 | 0.00 | 0.00 | 0.00 | 44 | 1004.7 |
| 20260902131548 | 69 | 350 | 7.0 | 13.0 | 0.00 | 0.00 | 0.00 | 42 | 1004.7 |
| 20260902130048 | 68 | 4 | 6.0 | 14.0 | 0.00 | 0.00 | 0.00 | 44 | 1004.6 |
| 20260902124547 | 69 | 321 | 7.0 | 18.0 | 0.00 | 0.00 | 0.00 | 45 | 1004.5 |
| 20260902123052 | 68 | 355 | 5.0 | 20.0 | 0.00 | 0.00 | 0.00 | 46 | 1004.4 |
| 20260902121544 | 69 | 344 | 9.0 | 18.0 | 0.00 | 0.00 | 0.00 | 44 | 1004.3 |
| 20260902120044 | 68 | 326 | 8.0 | 14.0 | 0.00 | 0.00 | 0.00 | 46 | 1004.3 |
| 20260902114544 | 67 | 294 | 4.0 | 13.0 | 0.00 | 0.00 | 0.00 | 49 | 1004.3 |
| 20260902113040 | 68 | 54 | 9.0 | 18.0 | 0.00 | 0.00 | 0.00 | 48 | 1004.2 |
| 20260902111539 | 68 | 23 | 7.0 | 12.0 | 0.00 | 0.00 | 0.00 | 48 | 1004.1 |
| 20260902110043 | 68 | 67 | 9.0 | 15.0 | 0.00 | 0.00 | 0.00 | 47 | 1004.1 |
| 20260902104535 | 69 | 26 | 8.0 | 15.0 | 0.00 | 0.00 | 0.00 | 46 | 1004.1 |
| 20260902103031 | 69 | 61 | 7.0 | 18.0 | 0.00 | 0.00 | 0.00 | 45 | 1004.3 |
| 20260902101535 | 70 | 47 | 5.0 | 13.0 | 0.00 | 0.00 | 0.00 | 42 | 1004.4 |
| 20260902100029 | 70 | 8 | 6.0 | 13.0 | 0.00 | 0.00 | 0.00 | 40 | 1004.5 |
| 20260902094530 | 70 | 64 | 6.0 | 17.0 | 0.00 | 0.00 | 0.00 | 41 | 1004.5 |
| 20260902093035 | 70 | 26 | 8.0 | 15.0 | 0.00 | 0.00 | 0.00 | 40 | 1004.7 |
| 20260902091526 | 70 | 6 | 8.0 | 13.0 | 0.00 | 0.00 | 0.00 | 41 | 1004.9 |
| 20260902090025 | 70 | 59 | 8.0 | 17.0 | 0.00 | 0.00 | 0.00 | 42 | 1004.8 |
| 20260902084523 | 70 | 321 | 8.0 | 14.0 | 0.00 | 0.00 | 0.00 | 42 | 1004.8 |
| 20260902083021 | 70 | 59 | 6.0 | 11.0 | 0.00 | 0.00 | 0.00 | 42 | 1005.0 |
| 20260902081521 | 70 | 26 | 5.0 | 18.0 | 0.00 | 0.00 | 0.00 | 44 | 1005.0 |
| 20260902080019 | 70 | 13 | 7.0 | 18.0 | 0.00 | 0.00 | 0.00 | 46 | 1005.0 |
| 20260902074518 | 70 | 11 | 10.0 | 21.0 | 0.00 | 0.00 | 0.00 | 44 | 1005.0 |
| 20260902073017 | 70 | 342 | 9.0 | 14.0 | 0.00 | 0.00 | 0.00 | 45 | 1005.0 |
| 20260902071513 | 71 | 326 | 8.0 | 19.0 | 0.00 | 0.00 | 0.00 | 45 | 1005.0 |
| 20260902070017 | 71 | 321 | 10.0 | 19.0 | 0.00 | 0.00 | 0.00 | 44 | 1005.0 |
| 20260902064511 | 71 | 349 | 12.0 | 18.0 | 0.00 | 0.00 | 0.00 | 47 | 1004.9 |
| 20260902063009 | 71 | 72 | 5.0 | 17.0 | 0.00 | 0.00 | 0.00 | 47 | 1004.8 |
| 20260902061520 | 71 | 335 | 6.0 | 11.0 | 0.00 | 0.00 | 0.00 | 47 | 1004.9 |
| 20260902060005 | 71 | 23 | 11.0 | 18.0 | 0.00 | 0.00 | 0.00 | 50 | 1005.1 |
| 20260902054510 | 71 | 336 | 6.0 | 14.0 | 0.00 | 0.00 | 0.00 | 48 | 1005.2 |
| 20260902053003 | 71 | 68 | 7.0 | 13.0 | 0.00 | 0.00 | 0.00 | 48 | 1005.2 |
| 20260902051503 | 72 | 22 | 6.0 | 14.0 | 0.00 | 0.00 | 0.00 | 46 | 1005.2 |
| 20260902050006 | 72 | 53 | 5.0 | 12.0 | 0.00 | 0.00 | 0.00 | 45 | 1005.4 |
| 20260902044502 | 72 | 70 | 6.0 | 19.0 | 0.00 | 0.00 | 0.00 | 45 | 1005.4 |
| 20260902043001 | 73 | 23 | 6.0 | 14.0 | 0.00 | 0.00 | 0.00 | 44 | 1005.5 |
| 20260902041500 | 73 | 207 | 8.0 | 13.0 | 0.00 | 0.00 | 0.00 | 43 | 1005.5 |
| 20260902040103 | 73 | 61 | 5.0 | 9.0 | 0.00 | 0.00 | 0.00 | 43 | 1005.4 |
| 20260902034603 | 74 | 56 | 3.0 | 12.0 | 0.00 | 0.00 | 0.00 | 41 | 1005.2 |
| 20260902033100 | 74 | 22 | 5.0 | 9.0 | 0.00 | 0.00 | 0.00 | 41 | 1005.3 |
| 20260902031557 | 74 | 296 | 3.0 | 9.0 | 0.00 | 0.00 | 0.00 | 41 | 1005.2 |
| 20260902030058 | 74 | 54 | 7.0 | 14.0 | 0.00 | 0.00 | 0.00 | 42 | 1005.0 |
| 20260902024557 | 73 | 323 | 4.0 | 10.0 | 0.00 | 0.00 | 0.00 | 42 | 1005.0 |
| 20260902023107 | 74 | 25 | 7.0 | 12.0 | 0.00 | 0.00 | 0.00 | 41 | 1004.9 |
| 20260902021557 | 74 | 22 | 7.0 | 10.0 | 0.00 | 0.00 | 0.00 | 41 | 1004.8 |
| 20260902020053 | 75 | 57 | 3.0 | 13.0 | 0.00 | 0.00 | 0.00 | 40 | 1004.7 |
| 20260902014554 | 75 | 64 | 5.0 | 13.0 | 0.00 | 0.00 | 0.00 | 39 | 1004.6 |
| 20260902013055 | 76 | 352 | 6.0 | 16.0 | 0.00 | 0.00 | 0.00 | 38 | 1004.9 |
| 20260902011551 | 76 | 56 | 8.0 | 19.0 | 0.00 | 0.00 | 0.00 | 40 | 1004.9 |
| 20260902010048 | 76 | 159 | 8.0 | 16.0 | 0.00 | 0.00 | 0.00 | 40 | 1005.2 |
| 20260902004548 | 76 | 49 | 9.0 | 17.0 | 0.00 | 0.02 | 0.00 | 41 | 1005.2 |
| 20260902003046 | 75 | 149 | 5.0 | 16.0 | 0.00 | 0.02 | 0.00 | 41 | 1005.4 |
| 20260902001600 | 76 | 210 | 4.0 | 14.0 | 0.00 | 0.02 | 0.00 | 40 | 1005.5 |
| 20260902000045 | 76 | 54 | 7.0 | 19.0 | 0.00 | 0.02 | 0.00 | 40 | 1005.6 |
| 20260901234543 | 76 | 310 | 10.0 | 19.0 | 0.00 | 0.07 | 0.00 | 40 | 1005.4 |
| 20260901233042 | 76 | 267 | 8.0 | 16.0 | 0.00 | 0.07 | 0.00 | 40 | 1005.8 |
| 20260901231542 | 76 | 25 | 7.0 | 16.0 | 0.00 | 0.07 | 0.00 | 39 | 1005.8 |
| 20260901230040 | 77 | 63 | 11.0 | 24.0 | 0.00 | 0.07 | 0.00 | 39 | 1005.9 |
| 20260901224536 | 75 | 53 | 11.0 | 19.0 | 0.00 | 0.07 | 0.00 | 44 | 1006.1 |
| 20260901223038 | 75 | 63 | 10.0 | 25.0 | 0.00 | 0.07 | 0.00 | 42 | 1006.4 |
| 20260901221542 | 74 | 91 | 11.0 | 21.0 | 0.00 | 0.07 | 0.00 | 44 | 1006.7 |
| 20260901220030 | 74 | 68 | 8.0 | 18.0 | 0.00 | 0.07 | 0.00 | 45 | 1007.0 |
| 20260901214528 | 75 | 75 | 11.0 | 18.0 | 0.00 | 0.07 | 0.00 | 41 | 1007.1 |
| 20260901213028 | 74 | 297 | 7.0 | 18.0 | 0.00 | 0.07 | 0.00 | 42 | 1007.4 |
| 20260901211526 | 74 | 124 | 13.0 | 22.0 | 0.00 | 0.07 | 0.00 | 41 | 1007.5 |
| 20260901210026 | 76 | 288 | 6.0 | 13.0 | 0.00 | 0.07 | 0.00 | 42 | 1007.5 |